Heat Advisory
until 8:00 PM CDT
| Temperature (°F) | Max | Average | Min |
|---|---|---|---|
| Max Temperature | 93 | 79.32 | 48 |
| Avg Temperature | 79.17 | 67.07 | 40.79 |
| Min Temperature | 67 | 55.87 | 34 |
| Dew Point (°F) | Max | Average | Min |
|---|---|---|---|
| Dew Point | 70 | 50.07 | 5 |
| Precipitation (in) | Max | Average | Min | Sum |
|---|---|---|---|---|
| Precipitation | 1.81 | 0.11 | 0.00 | 3.50 |
| Snowdepth | 0.00 | 0.00 | 0.00 | 0.00 |
| Wind (mph) | Max | Average | Min |
|---|---|---|---|
| Wind | 36 | 10.97 | 0 |
| Gust Wind | 54 | 12.64 | 0 |
| Sea Level Pressure (in) | Max | Average | Min |
|---|---|---|---|
| Sea Level Pressure | 29.99 | 29.5 | 29.01 |
| Date | Temperature (°F) | Dew Point (°F) | Humidity (%) | Wind Speed (mph) | Pressure (in) | Precipitation (in) | ||||||||||
|---|---|---|---|---|---|---|---|---|---|---|---|---|---|---|---|---|
| Max | Avg | Min | Max | Avg | Min | Max | Avg | Min | Max | Avg | Min | Max | Avg | Min | ||
| 3/31/2026 | 85 | 74.5 | 66 | 62 | 58.9 | 56 | 84 | 60.2 | 38 | 22 | 13.5 | 8 | 29.5 | 29.4 | 29.3 | 0.00 |
| 3/30/2026 | 84 | 73.5 | 64 | 61 | 58.3 | 55 | 81 | 60.3 | 42 | 18 | 13.4 | 8 | 29.6 | 29.5 | 29.4 | 0.00 |
| 3/29/2026 | 82 | 67.2 | 51 | 55 | 46.5 | 36 | 68 | 48.9 | 34 | 16 | 9.8 | 3 | 29.7 | 29.6 | 29.5 | 0.00 |
| 3/28/2026 | 58 | 55.2 | 53 | 42 | 38.3 | 36 | 64 | 53.2 | 45 | 17 | 7.7 | 0 | 30.0 | 29.9 | 29.8 | 0.00 |
| 3/27/2026 | 75 | 64.8 | 56 | 62 | 54.1 | 40 | 84 | 68.7 | 55 | 17 | 11.8 | 5 | 29.9 | 29.7 | 29.4 | 0.00 |
| 3/26/2026 | 87 | 76.0 | 67 | 62 | 59.9 | 57 | 84 | 59.2 | 40 | 20 | 13.0 | 7 | 29.5 | 29.4 | 29.3 | 0.00 |
| 3/25/2026 | 86 | 74.0 | 66 | 63 | 60.3 | 57 | 84 | 63.5 | 44 | 15 | 10.8 | 7 | 29.6 | 29.5 | 29.4 | 0.00 |
| 3/24/2026 | 83 | 72.0 | 61 | 57 | 52.9 | 44 | 70 | 52.1 | 36 | 14 | 10.3 | 3 | 29.6 | 29.5 | 29.5 | 0.00 |
| 3/23/2026 | 80 | 70.5 | 59 | 55 | 50.0 | 44 | 66 | 48.5 | 40 | 10 | 5.9 | 0 | 29.6 | 29.5 | 29.4 | 0.00 |
| 3/22/2026 | 93 | 79.2 | 65 | 56 | 49.8 | 45 | 63 | 39.0 | 19 | 17 | 10.9 | 0 | 29.4 | 29.3 | 29.3 | 0.00 |
| 3/21/2026 | 91 | 77.1 | 62 | 58 | 55.3 | 51 | 84 | 50.4 | 29 | 16 | 10.2 | 7 | 29.4 | 29.4 | 29.3 | 0.00 |
| 3/20/2026 | 90 | 74.5 | 60 | 54 | 50.9 | 48 | 72 | 46.1 | 27 | 14 | 9.8 | 6 | 29.5 | 29.5 | 29.4 | 0.00 |
| 3/19/2026 | 86 | 70.2 | 55 | 50 | 47.9 | 42 | 74 | 47.8 | 26 | 14 | 8.0 | 0 | 29.6 | 29.6 | 29.5 | 0.00 |
| 3/18/2026 | 75 | 60.8 | 47 | 42 | 35.5 | 22 | 59 | 39.8 | 30 | 17 | 10.4 | 7 | 29.7 | 29.6 | 29.6 | 0.00 |
| 3/17/2026 | 63 | 49.9 | 34 | 22 | 17.3 | 13 | 54 | 29.8 | 16 | 16 | 8.7 | 0 | 29.8 | 29.7 | 29.6 | 0.00 |
| 3/16/2026 | 48 | 40.8 | 35 | 19 | 10.8 | 5 | 48 | 30.8 | 17 | 28 | 15.8 | 0 | 29.9 | 29.8 | 29.6 | 0.00 |
| 3/15/2026 | 87 | 66.3 | 43 | 61 | 46.7 | 18 | 79 | 53.0 | 18 | 36 | 20.6 | 12 | 29.6 | 29.2 | 29.0 | 0.00 |
| 3/14/2026 | 81 | 68.5 | 56 | 55 | 52.8 | 47 | 90 | 59.3 | 40 | 20 | 13.7 | 7 | 29.4 | 29.3 | 29.2 | 0.00 |
| 3/13/2026 | 77 | 63.3 | 49 | 46 | 37.5 | 30 | 56 | 39.8 | 25 | 17 | 10.6 | 5 | 29.6 | 29.4 | 29.4 | 0.00 |
| 3/12/2026 | 64 | 53.3 | 41 | 34 | 26.7 | 18 | 62 | 38.3 | 20 | 13 | 6.5 | 0 | 29.9 | 29.8 | 29.6 | 0.04 |
| 3/11/2026 | 78 | 64.7 | 50 | 62 | 55.1 | 34 | 97 | 74.2 | 40 | 26 | 12.0 | 3 | 29.9 | 29.5 | 29.3 | 1.81 |
| 3/10/2026 | 83 | 72.1 | 62 | 68 | 65.3 | 59 | 97 | 80.0 | 60 | 20 | 12.5 | 0 | 29.4 | 29.4 | 29.2 | 0.00 |
| 3/9/2026 | 85 | 72.0 | 64 | 67 | 63.6 | 61 | 90 | 76.0 | 53 | 18 | 10.1 | 5 | 29.5 | 29.4 | 29.3 | 0.00 |
| 3/8/2026 | 75 | 48.0 | 46 | 46 | 45.5 | 45 | 93 | 91.5 | 90 | 6 | 3.0 | 0 | 29.6 | 29.6 | 29.6 | 0.00 |
| 3/7/2026 | 75 | 56.3 | 48 | 68 | 51.9 | 44 | 97 | 85.5 | 72 | 31 | 11.6 | 3 | 29.6 | 29.5 | 29.3 | 0.00 |
| 3/6/2026 | 75 | 74.5 | 48 | 66 | 63.1 | 61 | 87 | 69.1 | 49 | 23 | 14.5 | 8 | 29.4 | 29.3 | 29.3 | 0.00 |
| 3/5/2026 | 83 | 73.7 | 67 | 66 | 63.5 | 60 | 93 | 71.9 | 54 | 17 | 12.7 | 8 | 29.4 | 29.4 | 29.3 | 1.65 |
| 3/4/2026 | 82 | 71.1 | 66 | 70 | 64.7 | 60 | 97 | 80.8 | 58 | 18 | 9.6 | 0 | 29.5 | 29.5 | 29.4 | 0.00 |
| 3/3/2026 | 81 | 73.9 | 64 | 62 | 59.4 | 56 | 84 | 62.5 | 41 | 18 | 13.6 | 9 | 29.5 | 29.4 | 29.4 | 0.00 |
| 3/2/2026 | 84 | 71.4 | 65 | 59 | 55.9 | 48 | 84 | 59.8 | 41 | 15 | 8.9 | 3 | 29.6 | 29.5 | 29.4 | 0.00 |
| 3/1/2026 | 83 | 70.2 | 62 | 59 | 54.3 | 46 | 83 | 59.4 | 38 | 15 | 10.6 | 6 | 29.6 | 29.5 | 29.4 | 0.00 |